Regional Weather Roundup
Issued by NWS

Home | Current Version | Previous Version | Text Only | Print | Product List | Glossary On
Versions: 1 2 3 4 5 6 7 8 9 10 11 12 13 14 15 16 17 18 19 20 21 22 23 24 25 26 27 28 29 30 31 32 33 34 35 36 37 38 39 40 41 42 43 44 45 46 47 48 49 50
000
ASUS44 KBMX 271910
RWRAL

ALABAMA REGIONAL WEATHER ROUNDUP
NATIONAL WEATHER SERVICE BIRMINGHAM AL
200 PM CDT WED AUG 27 2014

NOTE: "FAIR" INDICATES FEW OR NO CLOUDS BELOW 12,000 FEET
WITH NO SIGNIFICANT WEATHER AND/OR OBSTRUCTIONS TO VISIBILITY.

THE REMARK "TC" DENOTES TEMPERATURE IN DEGREES CELSIUS.

ALZ001>011-014-016>018-020-272000-
NORTH ALABAMA

CITY           SKY/WX    TMP DP  RH WIND       PRES   REMARKS
MUSCLE SHOALS  MOSUNNY   89  63  41 N6        30.09F HX  90
HUNTSVILLE     MOSUNNY   90  61  37 N5        30.08F HX  90
DECATUR        MOSUNNY   90  62  39 VRB3      30.09F HX  90
HALEYVILLE     FAIR      89  64  43 N6        30.12F HX  90
GADSDEN        MOSUNNY   90  55  31 E9        30.08F
$$

ALZ012-013-022-023-030>036-040>044-272000-
WEST CENTRAL ALABAMA

CITY           SKY/WX    TMP DP  RH WIND       PRES   REMARKS
TUSCALOOSA     SUNNY     92  57  30 VRB3      30.05F HX  90
$$

ALZ015-024>027-033>036-040>044-272000-
CENTRAL ALABAMA

CITY           SKY/WX    TMP DP  RH WIND       PRES   REMARKS
BIRMINGHAM     MOSUNNY   90  55  30 NE10      30.10F
MONTGOMERY     MOSUNNY   91  62  37 CALM      30.05F HX  91
SHELBY CO ARPT SUNNY     89  53  29 VRB5      30.07F
MAXWELL AFB    SUNNY     90  62  38 NW3       30.05F HX  90
GREENVILLE     FAIR      92  64  39 N9        30.04F HX  93
$$

ALZ019-021-028-029-037-038-045>048-272000-
EAST CENTRAL ALABAMA

CITY           SKY/WX    TMP DP  RH WIND       PRES   REMARKS
ANNISTON       MOSUNNY   88  60  38 VRB5      30.08F
ALEXANDER CITY SUNNY     91  52  26 CALM      30.08F
AUBURN         SUNNY     88  55  33 N7        30.11F
$$

ALZ051>064-272000-
SOUTHWEST ALABAMA

CITY           SKY/WX    TMP DP  RH WIND       PRES   REMARKS
MOBILE         PTSUNNY   91  68  46 NE8       30.03F HX  95
BROOKLEY FIELD MOSUNNY   92  73  53 SE8       30.03F HX 100
EVERGREEN      PTSUNNY   93  65  39 NE9       30.03F HX  95
$$

ALZ049-050-065>069-272000-
SOUTHEAST ALABAMA

CITY           SKY/WX    TMP DP  RH WIND       PRES   REMARKS
DOTHAN         MOSUNNY   90  64  42 VRB5      30.06F HX  91
OZARK          PTSUNNY   91  64  40 VRB2      30.02F HX  92
TROY           PTSUNNY   91  64  40 N9        30.05F HX  92
EUFAULA        FAIR      92  57  30 VRB7      30.02F HX  90
$$



USA.gov is the U.S. government's official web portal to all federal, state and local government web resources and services.